CZ-6A DEB, 54577

Orbit data source: Space-Track

CZ-6A DEB, 54577 is space debris in SSO originally from a launch on Fri, 11 Nov 2022 UTC launched from the Taiyaun Space Center, China (TSC). Debris objects in space refer to the collection of defunct objects orbiting the Earth. Examples of debris include non-operational satellites, rocket bodies, and fragments generated from explosions, collisions, or faulty payload assembly.

Loading next visibility...
Identifier
54577, 2022-151MD
Orbit
SSO
Country
Flag of CNCN / PRC
Related business
Manufacturer
SAST
Mission
Spacecraft
Bus & Motor
Unknown
Mass
Unknown
Launch date (UTC)
2022-11-11 (4 years ago)
Launch vehicle
Unknown
Launch site
Taiyaun Space Center, China (TSC)
Object type
Payload
Rocket body
Debris
Shape & HBR
Unknown shape, 0.1 m
Radar Cross Section
Medium (>0.1 m² and <1 m²)

Expand to show TLE details & history
Last TLE update: 1 day ago

TLE from 1 day ago
0 CZ-6A DEB
1 54577U 22151MD  26235.82358298  .00008547  00000-0  13618-2 0  9997
2 54577  98.4514 274.2788 0060073  49.1586 311.4805 14.71013014199595
Epoch: 2026-08-23T19:45Z
TLE epoch observation values (Epoch: 2026-08-23T19:45:57.569Z)
Latitude
-0.00004°
Longitude
5.67483°
Altitude
632.97 km
Speed
7.557 km/s
True Right ascension
18h 17m 06s
True Declination
0° 00' 00"
Sunlit
Object was in full shadow at epoch
Visualization orbit readout
Latitude
Unknown
Longitude
Unknown
Altitude
Unknown
Speed
Unknown
Apparent Right ascension
Unknown
Apparent Declination
Unknown
Sunlit
N/A
Visualization observer readout
Local Sidereal Time
12:09:43
Azimuth
Unknown
Elevation
Unknown
Doppler factor
Unknown
Orbital elements
Apogee altitude
697.164 km
Perigee altitude
612.664 km
Semi-major axis
7,033.051 km
Eccentricity
0.00601
Inclination
98.4514°
RAAN
274.2788°
Arg. of periapsis
49.1586°
True anomaly
310.9622°
Mean anomaly
311.4805°
Eccentric anomaly
311.22161°
Mean motion
3.67983 °/min
Orbital period
97.83 mins
BSTAR
0.0013618
Loading maneuver chart data...
Computing Atmospheric mass density...
Loading historical data...
Loading historical data...
Loading historical data...
Loading historical data...
Loading historical data...
Loading historical data...
Loading historical data...

Documentation

Showing up to 5 results
|